Barnwell, SC

6:09 AM EDT on July 30, 2016 (GMT -0400)
Barnwell County

Weather History for KBNL - March, 2014

Change the Weather History Date:

Monday, March 10, 2014

  Actual Average (KOGB) Record (KOGB)
Temperature  
Mean Temperature 60 °F 55 °F  
Max Temperature 78 °F 67 °F 87 °F (1974)
Min Temperature 42 °F 43 °F 26 °F (1966)
Degree Days  
Heating Degree Days 5 10  
Month to date heating degree days 114  
Since 1 July heating degree days 2046  
Cooling Degree Days 0 1  
Month to date cooling degree days 2  
Year to date cooling degree days 5  
Growing Degree Days 10 (Base 50)    
Moisture  
Dew Point 44 °F    
Average Humidity 57    
Maximum Humidity 93    
Minimum Humidity 29    
Precipitation  
Precipitation 0.00 in 0.13 in 1.29 in (1978)
Month to date precipitation 1.32  
Year to date precipitation 8.89  
Sea Level Pressure  
Sea Level Pressure 29.98 in    
Wind  
Wind Speed 3 mph (WSW)    
Max Wind Speed 15 mph    
Max Gust Speed 24 mph    
Visibility 10 miles    
Events      
T = Trace of Precipitation, MM = Missing Value Source: NWS Daily Summary

Daily Weather History Graph

Daily Weather History Graph

Search for Another Location

Airport or City:

Trip Planner

Search our weather history database for the weather conditions in past years. The results will help you decide how hot, cold, wet, or windy it might be!

Date:

Astronomy

Mar. 10, 2014 Rise Set
Actual Time 7:42 AM EDT 7:29 PM EDT
Civil Twilight 7:17 AM EDT 7:54 PM EDT
Nautical Twilight 6:49 AM EDT 8:23 PM EDT
Astronomical Twilight 6:20 AM EDT 8:51 PM EDT
Moon 2:23 PM EDT (3/10) 3:41 AM EDT (3/10)
Length of Visible Light 12h 36m
Length of Day
11h 47m
Waxing Gibbous, 70% of the Moon is Illuminated
Mar 10
Waxing Gibbous
Mar 16
Full
Mar 23
Last Quarter
Mar 30
New
Apr 7
First Quarter

Hourly Weather History & Observations

Time (EDT) Temp. Dew Point Humidity Pressure Visibility Wind Dir Wind Speed Gust Speed Precip Events Conditions
12:15 AM 53.6 °F 44.6 °F 72% 30.06 in 10.0 mi Calm Calm - N/A   Clear
12:35 AM 55.4 °F 44.6 °F 67% 30.06 in 10.0 mi Calm Calm - N/A   Clear
12:55 AM 57.2 °F 44.6 °F 63% 30.06 in 10.0 mi West 4.6 mph - N/A   Clear
1:15 AM 57.2 °F 44.6 °F 63% 30.05 in 10.0 mi West 3.5 mph - N/A   Clear
1:35 AM 55.4 °F 44.6 °F 67% 30.05 in 10.0 mi West 3.5 mph - N/A   Clear
1:55 AM 55.4 °F 44.6 °F 67% 30.06 in 10.0 mi Calm Calm - N/A   Clear
2:15 AM 55.4 °F 44.6 °F 67% 30.05 in 10.0 mi Calm Calm - N/A   Clear
2:35 AM 53.6 °F 42.8 °F 67% 30.04 in 10.0 mi Calm Calm - N/A   Clear
2:55 AM 51.8 °F 44.6 °F 76% 30.05 in 10.0 mi Calm Calm - N/A   Clear
3:15 AM 51.8 °F 42.8 °F 71% 30.04 in 10.0 mi Calm Calm - N/A   Clear
3:35 AM 53.6 °F 42.8 °F 67% 30.03 in 10.0 mi Calm Calm - N/A   Clear
3:55 AM 51.8 °F 42.8 °F 71% 30.03 in 10.0 mi Calm Calm - N/A   Clear
4:15 AM 50.0 °F 42.8 °F 76% 30.03 in 10.0 mi Calm Calm - N/A   Clear
4:35 AM 50.0 °F 42.8 °F 76% 30.02 in 10.0 mi Calm Calm - N/A   Clear
4:55 AM 48.2 °F 41.0 °F 76% 30.02 in 10.0 mi Calm Calm - N/A   Clear
5:15 AM 48.2 °F 41.0 °F 76% 30.03 in 10.0 mi Calm Calm - N/A   Clear
5:35 AM 48.2 °F 42.8 °F 82% 30.03 in 10.0 mi Calm Calm - N/A   Clear
5:55 AM 44.6 °F 41.0 °F 87% 30.04 in 10.0 mi Calm Calm - N/A   Clear
6:15 AM 46.4 °F 42.8 °F 87% 30.04 in 10.0 mi Calm Calm - N/A   Clear
6:35 AM 46.4 °F 41.0 °F 81% 30.04 in 10.0 mi Calm Calm - N/A   Clear
6:55 AM 44.6 °F 41.0 °F 87% 30.04 in 10.0 mi Calm Calm - N/A   Clear
7:15 AM 44.6 °F 39.2 °F 81% 30.04 in 10.0 mi Calm Calm - N/A   Clear
7:35 AM 42.8 °F 39.2 °F 87% 30.04 in 10.0 mi Calm Calm - N/A   Clear
7:55 AM 42.8 °F 41.0 °F 93% 30.05 in 10.0 mi Calm Calm - N/A   Clear
8:15 AM 44.6 °F 41.0 °F 87% 30.05 in 10.0 mi Calm Calm - N/A   Clear
8:35 AM 46.4 °F 42.8 °F 87% 30.05 in 10.0 mi Calm Calm - N/A   Clear
8:55 AM 48.2 °F 44.6 °F 87% 30.05 in 10.0 mi Calm Calm - N/A   Clear
9:15 AM 53.6 °F 42.8 °F 67% 30.06 in 10.0 mi Calm Calm - N/A   Clear
9:35 AM 55.4 °F 44.6 °F 67% 30.06 in 10.0 mi Calm Calm - N/A   Clear
9:55 AM 59.0 °F 42.8 °F 55% 30.06 in 10.0 mi Calm Calm - N/A   Clear
10:15 AM 62.6 °F 42.8 °F 48% 30.06 in 10.0 mi West 5.8 mph - N/A   Clear
10:35 AM 64.4 °F 42.8 °F 45% 30.06 in 10.0 mi West 8.1 mph - N/A   Clear
10:55 AM 64.4 °F 42.8 °F 45% 30.05 in 10.0 mi West 6.9 mph - N/A   Clear
11:15 AM 66.2 °F 44.6 °F 46% 30.05 in 10.0 mi West 6.9 mph - N/A   Clear
11:35 AM 66.2 °F 44.6 °F 46% 30.04 in 10.0 mi WSW 10.4 mph - N/A   Clear
11:55 AM 69.8 °F 44.6 °F 40% 30.03 in 10.0 mi WSW 10.4 mph - N/A   Clear
12:15 PM 69.8 °F 44.6 °F 40% 30.03 in 10.0 mi West 10.4 mph - N/A   Clear
12:35 PM 71.6 °F 44.6 °F 38% 30.02 in 10.0 mi West 8.1 mph - N/A   Clear
12:55 PM 73.4 °F 44.6 °F 36% 30.01 in 10.0 mi West 8.1 mph 21.9 mph N/A   Clear
1:15 PM 73.4 °F 44.6 °F 36% 30.00 in 10.0 mi WSW 12.7 mph 19.6 mph N/A   Clear
1:35 PM 75.2 °F 44.6 °F 34% 29.98 in 10.0 mi West 13.8 mph 19.6 mph N/A   Clear
1:55 PM 75.2 °F 46.4 °F 36% 29.97 in 10.0 mi WSW 11.5 mph 19.6 mph N/A   Clear
2:15 PM 75.2 °F 46.4 °F 36% 29.95 in 10.0 mi WSW 11.5 mph 17.3 mph N/A   Clear
2:35 PM 77.0 °F 46.4 °F 34% 29.93 in 10.0 mi West 12.7 mph 19.6 mph N/A   Clear
2:55 PM 78.8 °F 46.4 °F 32% 29.92 in 10.0 mi West 13.8 mph 18.4 mph N/A   Clear
3:15 PM 78.8 °F 46.4 °F 32% 29.92 in 10.0 mi WSW 11.5 mph 20.7 mph N/A   Clear
3:35 PM 78.8 °F 44.6 °F 30% 29.91 in 10.0 mi WSW 13.8 mph 24.2 mph N/A   Clear
3:55 PM 78.8 °F 44.6 °F 30% 29.91 in 10.0 mi West 11.5 mph 23.0 mph N/A   Clear
4:15 PM 77.0 °F 44.6 °F 32% 29.90 in 10.0 mi WSW 15.0 mph 24.2 mph N/A   Clear
4:35 PM 77.0 °F 44.6 °F 32% 29.90 in 10.0 mi WSW 15.0 mph 18.4 mph N/A   Clear
4:55 PM 78.8 °F 44.6 °F 30% 29.89 in 10.0 mi WSW 15.0 mph 20.7 mph N/A   Clear
5:15 PM 77.0 °F 44.6 °F 32% 29.89 in 10.0 mi West 11.5 mph 16.1 mph N/A   Clear
5:35 PM 75.2 °F 41.0 °F 29% 29.88 in 10.0 mi West 13.8 mph 18.4 mph N/A   Clear
5:55 PM 75.2 °F 42.8 °F 31% 29.89 in 10.0 mi WSW 9.2 mph 18.4 mph N/A   Partly Cloudy
6:15 PM 75.2 °F 42.8 °F 31% 29.89 in 10.0 mi WSW 12.7 mph 17.3 mph N/A   Clear
6:35 PM 75.2 °F 44.6 °F 34% 29.89 in 10.0 mi WSW 12.7 mph 19.6 mph N/A   Clear
6:55 PM 73.4 °F 44.6 °F 36% 29.89 in 10.0 mi WSW 10.4 mph - N/A   Clear
7:15 PM 71.6 °F 44.6 °F 38% 29.90 in 10.0 mi West 4.6 mph - N/A   Clear
7:35 PM 69.8 °F 44.6 °F 40% 29.90 in 10.0 mi WSW 5.8 mph - N/A   Clear
7:55 PM 66.2 °F 44.6 °F 46% 29.90 in 10.0 mi WSW 3.5 mph - N/A   Clear
8:15 PM 66.2 °F 44.6 °F 46% 29.91 in 10.0 mi Calm Calm - N/A   Clear
8:35 PM 62.6 °F 46.4 °F 55% 29.91 in 10.0 mi Calm Calm - N/A   Clear
8:55 PM 62.6 °F 46.4 °F 55% 29.91 in 10.0 mi Calm Calm - N/A   Clear
9:15 PM 60.8 °F 46.4 °F 59% 29.92 in 10.0 mi Calm Calm - N/A   Clear
9:35 PM 57.2 °F 46.4 °F 67% 29.92 in 10.0 mi Calm Calm - N/A   Clear
9:55 PM 57.2 °F 46.4 °F 67% 29.92 in 10.0 mi Calm Calm - N/A   Clear
10:15 PM 57.2 °F 46.4 °F 67% 29.92 in 10.0 mi Calm Calm - N/A   Clear
10:35 PM 57.2 °F 46.4 °F 67% 29.92 in 10.0 mi Calm Calm - N/A   Clear
10:55 PM 57.2 °F 46.4 °F 67% 29.92 in 10.0 mi Calm Calm - N/A   Clear
11:15 PM 59.0 °F 46.4 °F 63% 29.92 in 10.0 mi Calm Calm - N/A   Clear
11:35 PM 55.4 °F 46.4 °F 72% 29.92 in 10.0 mi Calm Calm - N/A   Clear
11:55 PM 55.4 °F 46.4 °F 72% 29.92 in 10.0 mi Calm Calm - N/A   Clear